Zurück zum Katalog

CZ-6A DEB

AktivPO
NORAD 61372·DEBRIS·🇨🇳 China

Gestartet Aug 6, 2024 von Taiyuan Satellite Launch Center

Loading…

Nächste Überflüge (nächste 24 Stunden)

TLE

AktuellSource: Space-Track

Epoche: Sep 13, 2026, 11:15 UTC

1 61372U 24140WM  26256.46930553  .00001121  00000-0  47132-3 0  9991
2 61372  88.9968 264.2537 0031948 269.9772  89.7760 14.24958827105200

Verfolge CZ-6A DEB in Echtzeit mit AllMySat

Download on the App Store